Location: Bonn
(50.7330°N, 7.1000°E)
Time: 01:32:47
(UTC+02:00)

Cosmos 1933 Rocket - Visible Passes

Search period start: 26 October 2014 00:00
Search period end: 04 November 2014 23:00
Orbit: 607 x 633 km, 82.5° (Epoch: 24 October)

Date Brightness Start Highest point End Pass type
(mag) Time Alt. Az. Time Alt. Az. Time Alt. Az.
26 Oct 6.3 03:37:45 11° ESE 03:40:07 16° E 03:42:48 10° NE visible
26 Oct 3.5 05:15:03 24° SSW 05:17:31 61° WNW 05:21:50 10° N visible
27 Oct 5.5 03:56:48 26° ESE 03:57:33 27° E 04:01:12 10° NNE visible
27 Oct 4.1 05:34:03 29° WSW 05:35:19 35° WNW 05:39:20 10° N visible
28 Oct 4.5 04:15:30 45° ENE 04:15:30 45° ENE 04:19:14 10° NNE visible
28 Oct 4.7 05:52:44 21° WNW 05:53:13 22° WNW 05:56:37 10° NNW visible
29 Oct 4.3 04:33:59 45° NNE 04:33:59 45° NNE 04:37:03 10° NNE visible
29 Oct 5.3 06:11:12 14° WNW 06:11:13 14° WNW 06:13:27 10° NNW visible
30 Oct 6.6 03:15:05 13° NE 03:15:05 13° NE 03:15:48 10° NE visible
30 Oct 4.7 04:52:18 30° N 04:52:18 30° N 04:54:41 10° N visible
31 Oct 6.3 03:33:17 15° NE 03:33:17 15° NE 03:34:08 10° NNE visible
31 Oct 5.2 05:10:30 20° NNW 05:10:30 20° NNW 05:12:09 10° N visible
01 Nov 6.2 03:51:24 14° NNE 03:51:24 14° NNE 03:52:07 10° NNE visible
01 Nov 5.6 05:28:37 13° NNW 05:28:37 13° NNW 05:29:23 10° NNW visible
02 Nov 6.2 04:09:27 13° N 04:09:27 13° N 04:09:54 10° N visible
03 Nov 6.2 04:27:26 11° N 04:27:26 11° N 04:27:31 10° N visible
